Leadville, CO

11:40 PM MDT on April 23, 2018 (GMT -0600)
Lake County

Weather History for KLXV - October, 2011

Change the Weather History Date:

Wednesday, October 12, 2011

  Actual Average Record
Temperature  
Mean Temperature 38 °F -  
Max Temperature 48 °F 51 °F 66 °F (1991)
Min Temperature 28 °F 24 °F 7 °F (1982)
Degree Days  
Heating Degree Days 27 27  
Month to date heating degree days 332 306  
Since 1 July heating degree days 1397 1604  
Cooling Degree Days 0 0  
Month to date cooling degree days 0 0  
Year to date cooling degree days 0 0  
Moisture  
Dew Point 21 °F    
Average Humidity 52    
Maximum Humidity 75    
Minimum Humidity 29    
Precipitation  
Precipitation T in 0.03 in 0.36 in (2012)
Month to date precipitation 0.85 0.35  
Year to date precipitation 13.04 10.38  
Sea Level Pressure  
Sea Level Pressure 30.05 in    
Wind  
Wind Speed 11 mph (North)    
Max Wind Speed 23 mph    
Max Gust Speed 31 mph    
Visibility 10 miles    
Events Snow    
T = Trace of Precipitation, MM = Missing Value Source: NWS Daily Summary

Daily Weather History Graph

Daily Weather History Graph

Search for Another Location

Airport or City:

Astronomy

Oct. 12, 2011 Rise Set
Actual Time 7:11 AM MDT 6:31 PM MDT
Civil Twilight 6:44 AM MDT 6:58 PM MDT
Nautical Twilight 6:13 AM MDT 7:29 PM MDT
Astronomical Twilight 5:42 AM MDT 8:00 PM MDT
Moon 6:35 PM MDT (10/12) 7:48 AM MDT (10/12)
Length of Visible Light 12h 13m
Length of Day
11h 19m
Full, 100% of the Moon is Illuminated
Oct 12
Full
Oct 19
Last Quarter
Oct 26
New
Nov 2
First Quarter
Nov 10
Full

Hourly Weather History & Observations

Time (MDT) Temp. Windchill Dew Point Humidity Pressure Visibility Wind Dir Wind Speed Gust Speed Precip Events Conditions
12:53 AM 35.1 °F 31.0 °F 28.0 °F 76% 29.92 in 10.0 mi NNW 4.6 mph 20.7 mph 0.00 in Snow Light Snow
1:09 AM 35.6 °F 28.0 °F 28.4 °F 75% 30.18 in 9.0 mi NNW 10.4 mph 18.4 mph 0.00 in Snow Light Snow
1:34 AM 35.6 °F 28.6 °F 28.4 °F 75% 30.19 in 10.0 mi NNW 9.2 mph - 0.00 in   Overcast
1:53 AM 35.1 °F 31.0 °F 28.0 °F 76% 29.92 in 8.0 mi NNW 4.6 mph - 0.00 in Snow Light Snow
2:53 AM 35.1 °F 27.4 °F 27.0 °F 72% 29.94 in 10.0 mi NNW 10.4 mph 17.3 mph 0.00 in   Overcast
3:53 AM 35.1 °F 26.9 °F 24.1 °F 64% 29.95 in 10.0 mi NNW 11.5 mph 18.4 mph N/A   Overcast
4:53 AM 34.0 °F 25.5 °F 25.0 °F 70% 29.97 in 10.0 mi NW 11.5 mph - N/A   Overcast
5:53 AM 33.1 °F 26.9 °F 23.0 °F 66% 30.01 in 10.0 mi North 6.9 mph - N/A   Overcast
6:53 AM 32.0 °F 26.4 °F 24.1 °F 73% 30.07 in 10.0 mi ENE 5.8 mph - N/A   Overcast
7:53 AM 32.0 °F 24.2 °F 24.1 °F 73% 30.08 in 10.0 mi NE 9.2 mph - N/A   Mostly Cloudy
8:53 AM 36.0 °F 29.6 °F 23.0 °F 59% 30.08 in 10.0 mi North 8.1 mph - N/A   Partly Cloudy
9:53 AM 37.0 °F 28.5 °F 24.1 °F 59% 30.07 in 10.0 mi NW 13.8 mph 23.0 mph N/A   Clear
10:53 AM 39.0 °F 29.6 °F 24.1 °F 55% 30.05 in 10.0 mi NW 18.4 mph 26.5 mph N/A   Clear
11:53 AM 42.1 °F 33.9 °F 23.0 °F 47% 30.02 in 10.0 mi NNW 17.3 mph 29.9 mph N/A   Clear
12:53 PM 45.0 °F 38.9 °F 21.9 °F 40% 30.01 in 10.0 mi North 12.7 mph 24.2 mph N/A   Clear
1:53 PM 46.9 °F - 19.0 °F 33% 29.97 in 10.0 mi NW 16.1 mph 23.0 mph N/A   Clear
2:53 PM 48.0 °F - 18.0 °F 30% 29.96 in 10.0 mi NNW 17.3 mph 25.3 mph N/A   Clear
3:53 PM 46.9 °F - 18.0 °F 32% 29.99 in 10.0 mi NNW 17.3 mph 25.3 mph N/A   Clear
4:53 PM 46.9 °F - 17.1 °F 30% 30.00 in 10.0 mi NNW 16.1 mph 24.2 mph N/A   Clear
5:53 PM 44.1 °F 36.5 °F 17.1 °F 34% 30.04 in 10.0 mi NNW 17.3 mph 24.2 mph N/A   Clear
6:53 PM 41.0 °F 34.3 °F 16.0 °F 36% 30.08 in 10.0 mi North 11.5 mph - N/A   Clear
7:53 PM 35.1 °F - 12.9 °F 40% 30.14 in 10.0 mi Calm Calm - N/A   Clear
8:53 PM 32.0 °F 26.4 °F 12.9 °F 45% 30.14 in 10.0 mi East 5.8 mph - N/A   Clear
9:53 PM 30.0 °F 24.1 °F 15.1 °F 54% 30.15 in 10.0 mi East 5.8 mph - N/A   Clear
10:53 PM 30.0 °F 23.2 °F 14.0 °F 51% 30.15 in 10.0 mi ENE 6.9 mph - N/A   Clear
11:53 PM 28.0 °F 20.8 °F 15.1 °F 58% 30.15 in 10.0 mi ENE 6.9 mph - N/A   Clear